Location: Charlottesville
(38.0290°N, 78.4770°W)
Time: 08:31:28
(UTC-05:00)

Envisat - Pass Details

Date: 10 October 2017
Orbit: 764 x 766 km, 98.2° (Epoch: 10 December)

Event Time Altitude Azimuth Distance (km) Brightness Sun altitude
Exits shadow 19:27:26 10° 67° (ENE) 2,309 4.9 -9.6°
Reaches altitude 10° 19:27:29 10° 67° (ENE) 2,307 4.9 -9.6°
Maximum altitude 19:28:03 10° 60° (ENE) 2,295 4.9 -9.7°
Drops below altitude 10° 19:28:37 10° 54° (NE) 2,308 5.0 -9.8°
Sets 19:33:27 0° 12° (NNE) 3,242 6.1 -10.7°
